Weather in Volochayevka-1

Russia / Jewish Autonomous Oblast     48°33′46″N   134°29′00″E
temp.,
°C
wind,
m/s
gust,
m/s
humid.,
%
clouds,
%
prec.,
mm/h
press.,
hPa
HPBL,
m
18 may, tue
tue1801:00+14s6154956 0.0 1001253
04:00+12ssw613625 0.1 1001230
07:00+13s714625 0.0 1001312
10:00+20ssw8134679 0.0 1001684
13:00+26sw8113247 0.0 10001894
16:00+28sw7143178 0.0 9983462
19:00+24ssw7144289 0.0 998486
22:00+21ssw8194312 0.0 999641
19 may, wed
wed1901:00+16ssw33605 0.0 100033
04:00+14ssw23665 0.0 100040
07:00+14s4775100 0.2 1001230
10:00+18sw456084 0.4 1002662
13:00+23w4549100 0.1 10021442
16:00+24wnw354594 0.1 10021959
19:00+22n235598 0.0 100374
22:00+17se22672 0.0 100411
20 may, thu
thu2001:00+16sse33705 0.0 100436
04:00+14sse358162 0.0 100377
07:00+16s413833 1.1 1003442
10:00+21sw811594 1.3 1002898
13:00+27sw7104213 0.0 10011800
16:00+28wsw793794 0.0 10012315
19:00+24wnw475895 0.1 1002331
22:00+18wnw4665100 0.4 100387
21 may, fri
fri2101:00+16wsw22760 0.2 100413
04:00+15nnw22740 0.3 100414
07:00+16n34770 0.0 1006136
10:00+22ene33606 0.0 1006665
13:00+24ene3248100 0.0 1005939
16:00+26ne2241100 0.0 10031066
19:00+24ene3450100 0.0 100292
22:00+18e4755100 0.0 100390
22 may, sat
sat2201:00+16ene3555100 0.0 100370
04:00+15ene5135757 0.0 1004332
07:00+14ene7155899 0.0 1006561
10:00+17ene9125089 0.0 1006767
13:00+22ene794313 0.0 10051060
16:00+23ene67415 0.0 10041109
19:00+21e585127 0.0 1005573
22:00+15e34660 0.0 100655